Location: ??? ???
(33.4974°N, 35.4618°E)
Time: 11:53:52
(UTC+00:00)

Cosmos 1315 Rocket - Pass Details

Date: 29 October 2020
Orbit: 530 x 567 km, 81.2° (Epoch: 26 November)

Event Time Altitude Azimuth Distance (km) Brightness Sun altitude
Rises 16:00:56 0° 187° (S) 2,664 6.5 -15.6°
Reaches altitude 10° 16:03:04 10° 188° (S) 1,782 5.6 -16.0°
Maximum altitude 16:06:59 87° 277° (W) 545 2.7 -16.8°
Drops below altitude 10° 16:10:59 10° 7° (N) 1,815 5.3 -17.7°
Sets 16:13:10 0° 8° (N) 2,719 6.2 -18.1°
